Погода в Пожве

Россия / Пермский край     59°04′29″N   56°06′30″E
темп.,
°C
ветер,
м/с
пор.,
м/с
влажн.,
%
обл.,
%
осадки,
мм/ч
давл.,
гПа
погр.,
м
28 июля, ср
ср2823:00+11сз3863100 0.1 1013727
02:00+9з4107591 0.0 1012392
05:00+9зсз4886100 0.2 1011386
08:00+9сз599197 0.9 1012661
11:00+12сз576652 1.1 10121254
14:00+12сз3659100 0.1 10121362
17:00+13зсз5654100 0.1 10121514
20:00+11зсз576329 0.0 1012912
29 июля, чт
чт2923:00+8з3676100 0.0 1012139
02:00+8юз497795 0.0 1010207
05:00+9юз61574100 0.0 1008446
08:00+12зюз5136989 0.0 1006496
11:00+16з476043 0.0 1005469
14:00+17зсз3664100 0.0 1005219
17:00+17с13697 0.2 1005410
20:00+15юз2291100 1.4 100454
30 июля, пт
пт3023:00+13ююв1192100 1.4 100411
02:00+13вюв1196100 0.0 100312
05:00+13з1198100 2.2 100231
08:00+14ююз2599100 2.9 1001156
11:00+14юз3698100 4.9 1000275
14:00+15юз2498100 3.3 1001198
17:00+15вюв129888 4.8 100147
20:00+15св239875 0.1 1002131
31 июля, сб
сб3123:00+14св229872 0.1 100340
02:00+13с119670 0.0 100417
05:00+12ссв119576 0.0 100512
08:00+14ююв119365 0.0 100568
11:00+17ююв348144 0.0 1005521
14:00+20юв3474100 0.0 1003651
17:00+21ююв257353 0.6 1002573
20:00+18юз5129399 5.9 1001299
1 августа, вс
вс123:00+17з389711 8.6 1001216
02:00+14зюз369732 0.0 1002117
05:00+13зюз389751 0.1 1003158
08:00+15з410935 0.3 1004441
11:00+18зсз59677 0.3 1005783
14:00+21з465428 0.0 10061309
17:00+21з3659100 0.0 1006512
20:00+19з367297 0.0 1007181